EN

Hourly Weather Godziszka

Today, 18 May, Tuesday

Time Temperature Precipitation Wind Pressure Humidity
00:00 +9°C° 1.9 mm 1 mps 712 mmHg 98%
01:00 +9°C° 0 mm 1 mps 712 mmHg 98%
02:00 +8°C° 1 mm 2 mps 712 mmHg 98%
03:00 +8°C° 1 mm 2 mps 712 mmHg 98%
04:00 +8°C° 1 mm 2 mps 712 mmHg 98%
05:00 +8°C° 0.9 mm 2 mps 712 mmHg 97%
06:00 +8°C° 0.9 mm 2 mps 713 mmHg 97%
07:00 +8°C° 0.9 mm 3 mps 713 mmHg 96%
08:00 +9°C° 0.3 mm 3 mps 714 mmHg 94%
09:00 +10°C° 0.3 mm 3 mps 714 mmHg 91%
10:00 +10°C° 0.3 mm 4 mps 714 mmHg 88%
11:00 +11°C° 0.5 mm 4 mps 714 mmHg 87%
12:00 +11°C° 0.5 mm 4 mps 715 mmHg 85%
13:00 +12°C° 0.5 mm 5 mps 715 mmHg 83%
14:00 +12°C° 0.5 mm 4 mps 715 mmHg 83%
15:00 +12°C° 0.5 mm 4 mps 715 mmHg 84%
16:00 +12°C° 0.5 mm 4 mps 715 mmHg 84%
17:00 +11°C° 0.3 mm 3 mps 715 mmHg 86%
18:00 +10°C° 0.3 mm 2 mps 716 mmHg 88%
19:00 +9°C° 0.3 mm 2 mps 716 mmHg 90%
20:00 +8°C° 0 mm 2 mps 716 mmHg 92%
21:00 +8°C° 0 mm 2 mps 716 mmHg 93%
22:00 +8°C° 0 mm 1 mps 716 mmHg 94%
23:00 +6°C° 0 mm 2 mps 716 mmHg 95%

Tomorrow, 19 May, Wednesday

Time Temperature Precipitation Wind Pressure Humidity
00:00 +6°C° 0 mm 2 mps 717 mmHg 95%
01:00 +6°C° 0 mm 2 mps 717 mmHg 95%
02:00 +7°C° 0 mm 1 mps 717 mmHg 95%
03:00 +7°C° 0 mm 1 mps 717 mmHg 94%
04:00 +7°C° 0 mm 1 mps 717 mmHg 94%
05:00 +8°C° 0 mm 1 mps 717 mmHg 91%
06:00 +9°C° 0 mm 1 mps 717 mmHg 89%
07:00 +9°C° 0 mm 2 mps 717 mmHg 86%
08:00 +10°C° 0.1 mm 2 mps 717 mmHg 82%
09:00 +10°C° 0.1 mm 2 mps 717 mmHg 78%
10:00 +12°C° 0.1 mm 2 mps 717 mmHg 74%
11:00 +13°C° 0.2 mm 2 mps 717 mmHg 71%
12:00 +13°C° 0.2 mm 2 mps 717 mmHg 67%
13:00 +14°C° 0.2 mm 2 mps 717 mmHg 64%
14:00 +14°C° 0.3 mm 2 mps 717 mmHg 68%
15:00 +13°C° 0.3 mm 2 mps 717 mmHg 73%
16:00 +13°C° 0.3 mm 2 mps 717 mmHg 77%
17:00 +12°C° 0.4 mm 2 mps 717 mmHg 81%
18:00 +10°C° 0.4 mm 2 mps 717 mmHg 85%
19:00 +10°C° 0.4 mm 1 mps 717 mmHg 89%
20:00 +10°C° 0.6 mm 1 mps 717 mmHg 91%
21:00 +9°C° 0.6 mm 1 mps 717 mmHg 93%
22:00 +9°C° 0.6 mm 1 mps 717 mmHg 95%
23:00 +9°C° 0.5 mm 1 mps 717 mmHg 96%

Day after tomorrow, 20 May, Thursday

Time Temperature Precipitation Wind Pressure Humidity
00:00 +8°C° 0.5 mm 1 mps 717 mmHg 97%
01:00 +8°C° 0.5 mm 1 mps 717 mmHg 97%
02:00 +7°C° 0.3 mm 2 mps 717 mmHg 98%
03:00 +7°C° 0.3 mm 2 mps 718 mmHg 98%
04:00 +7°C° 0.3 mm 2 mps 718 mmHg 98%
05:00 +7°C° 0.2 mm 2 mps 718 mmHg 97%
06:00 +7°C° 0.2 mm 2 mps 718 mmHg 96%
07:00 +7°C° 0.2 mm 2 mps 719 mmHg 95%
08:00 +8°C° 0.3 mm 2 mps 719 mmHg 92%
09:00 +9°C° 0.3 mm 3 mps 719 mmHg 88%
10:00 +10°C° 0.3 mm 3 mps 719 mmHg 85%
11:00 +10°C° 0.4 mm 3 mps 720 mmHg 79%
12:00 +11°C° 0.4 mm 3 mps 720 mmHg 74%
13:00 +12°C° 0.4 mm 3 mps 720 mmHg 68%
14:00 +12°C° 0.1 mm 3 mps 720 mmHg 67%
15:00 +12°C° 0.1 mm 3 mps 720 mmHg 66%
16:00 +13°C° 0.1 mm 4 mps 720 mmHg 65%
17:00 +11°C° 0.3 mm 3 mps 720 mmHg 73%
18:00 +10°C° 0.3 mm 2 mps 720 mmHg 81%
19:00 +8°C° 0.3 mm 2 mps 721 mmHg 89%
20:00 +8°C° 0.2 mm 2 mps 721 mmHg 92%
21:00 +8°C° 0.2 mm 1 mps 721 mmHg 94%
22:00 +7°C° 0.2 mm 1 mps 722 mmHg 97%
23:00 +7°C° 0 mm 1 mps 722 mmHg 97%

21 May, Friday

Time Temperature Precipitation Wind Pressure Humidity
00:00 +8°C° 0 mm 1 mps 722 mmHg 97%
01:00 +8°C° 0 mm 1 mps 722 mmHg 97%
02:00 +7°C° 0 mm 1 mps 722 mmHg 97%
03:00 +7°C° 0 mm 1 mps 722 mmHg 97%
04:00 +7°C° 0 mm 1 mps 722 mmHg 97%
05:00 +8°C° 0 mm 1 mps 722 mmHg 92%
06:00 +8°C° 0 mm 0 mps 722 mmHg 87%
07:00 +10°C° 0 mm 0 mps 722 mmHg 82%
08:00 +11°C° 0 mm 0 mps 722 mmHg 72%
09:00 +13°C° 0 mm 0 mps 722 mmHg 62%
10:00 +15°C° 0 mm 0 mps 722 mmHg 52%
11:00 +18°C° 0 mm 1 mps 721 mmHg 49%
12:00 +18°C° 0 mm 1 mps 721 mmHg 46%
13:00 +19°C° 0 mm 1 mps 720 mmHg 43%
14:00 +18°C° 0 mm 2 mps 720 mmHg 44%
15:00 +18°C° 0 mm 2 mps 719 mmHg 45%
16:00 +18°C° 0 mm 3 mps 719 mmHg 46%
17:00 +16°C° 0 mm 2 mps 719 mmHg 55%
18:00 +14°C° 0 mm 2 mps 719 mmHg 64%
19:00 +12°C° 0 mm 2 mps 718 mmHg 73%
20:00 +10°C° 0 mm 2 mps 718 mmHg 75%
21:00 +10°C° 0 mm 2 mps 718 mmHg 77%
22:00 +9°C° 0 mm 2 mps 718 mmHg 79%
23:00 +9°C° 0 mm 2 mps 717 mmHg 80%

22 May, Saturday

Time Temperature Precipitation Wind Pressure Humidity
00:00 +8°C° 0 mm 2 mps 717 mmHg 80%
01:00 +8°C° 0 mm 2 mps 716 mmHg 81%
02:00 +8°C° 0 mm 2 mps 716 mmHg 82%
03:00 +8°C° 0 mm 3 mps 715 mmHg 83%
04:00 +7°C° 0 mm 3 mps 715 mmHg 85%
05:00 +10°C° 0 mm 3 mps 714 mmHg 77%
06:00 +12°C° 0 mm 3 mps 714 mmHg 70%
07:00 +14°C° 0 mm 3 mps 714 mmHg 63%
08:00 +15°C° 0 mm 4 mps 714 mmHg 59%
09:00 +17°C° 0 mm 4 mps 714 mmHg 55%
10:00 +18°C° 0 mm 4 mps 714 mmHg 51%
11:00 +17°C° 0 mm 5 mps 714 mmHg 55%
12:00 +16°C° 0 mm 5 mps 714 mmHg 60%
13:00 +16°C° 0 mm 5 mps 714 mmHg 65%
14:00 +15°C° 0.3 mm 5 mps 714 mmHg 72%
15:00 +13°C° 0.3 mm 5 mps 714 mmHg 80%
16:00 +12°C° 0.3 mm 4 mps 714 mmHg 88%
17:00 +12°C° 1.2 mm 4 mps 714 mmHg 90%
18:00 +11°C° 1.2 mm 3 mps 715 mmHg 92%
19:00 +10°C° 1.2 mm 3 mps 715 mmHg 95%
20:00 +10°C° 0.5 mm 3 mps 716 mmHg 94%
21:00 +9°C° 0.5 mm 2 mps 716 mmHg 94%
22:00 +9°C° 0.5 mm 2 mps 716 mmHg 93%
23:00 +8°C° 0.1 mm 2 mps 717 mmHg 93%

23 May, Sunday

Time Temperature Precipitation Wind Pressure Humidity
00:00 +8°C° 0.1 mm 3 mps 717 mmHg 92%
01:00 +8°C° 0.1 mm 3 mps 717 mmHg 91%
02:00 +8°C° 0 mm 3 mps 717 mmHg 91%
03:00 +7°C° 0 mm 2 mps 717 mmHg 91%
04:00 +6°C° 0 mm 2 mps 717 mmHg 92%
05:00 +8°C° 0 mm 2 mps 718 mmHg 87%
06:00 +9°C° 0 mm 2 mps 718 mmHg 83%
07:00 +10°C° 0 mm 2 mps 718 mmHg 79%
08:00 +11°C° 0.1 mm 3 mps 718 mmHg 73%
09:00 +12°C° 0.1 mm 4 mps 718 mmHg 66%
10:00 +14°C° 0.1 mm 4 mps 719 mmHg 60%
11:00 +14°C° 0.2 mm 5 mps 719 mmHg 60%
12:00 +14°C° 0.2 mm 5 mps 719 mmHg 59%
13:00 +14°C° 0.2 mm 5 mps 719 mmHg 59%
14:00 +14°C° 0.4 mm 5 mps 719 mmHg 65%
15:00 +13°C° 0.4 mm 5 mps 719 mmHg 71%
16:00 +12°C° 0.4 mm 4 mps 720 mmHg 77%
17:00 +11°C° 0.2 mm 3 mps 720 mmHg 81%
18:00 +10°C° 0.2 mm 3 mps 720 mmHg 85%
19:00 +9°C° 0.2 mm 2 mps 720 mmHg 89%
20:00 +9°C° 0 mm 2 mps 721 mmHg 91%
21:00 +8°C° 0 mm 2 mps 721 mmHg 92%
22:00 +7°C° 0 mm 2 mps 721 mmHg 93%
23:00 +7°C° 0 mm 2 mps 721 mmHg 93%
Show more